Location: Hains Lake
(37.8540°N, 99.8578°W)
Time: 05:10:32
(UTC+00:00)

Tiros 1 despin weight - Pass Details

Date: 19 April 2021
Orbit: 593 x 642 km, 48.2° (Epoch: 07 May)

Event Time Altitude Azimuth Distance (km) Brightness Sun altitude
Rises 18:22:29 0° 300° (WNW) 2,851 ? 63.3°
Reaches altitude 10° 18:24:50 10° 296° (WNW) 1,939 ? 63.4°
Maximum altitude 18:29:09 52° 220° (SW) 736 ? 63.5°
Drops below altitude 10° 18:33:25 10° 143° (SE) 1,914 ? 63.6°
Sets 18:35:43 0° 139° (SE) 2,810 ? 63.6°
